Location: Bonnesvalyn
(49.1218°N, 3.3177°E)
Time: 15:47:35
(UTC+00:00)

Cosmos 2219 Rocket - Visible Passes

Search period start: 30 September 2023 00:00
Search period end: 10 October 2023 00:00
Orbit: 828 x 846 km, 71.0° (Epoch: 30 September)

Date Brightness Start Highest point End Pass type
(mag) Time Alt. Az. Time Alt. Az. Time Alt. Az.
30 Sep 5.1 00:31:02 10° N 00:32:47 11° NNE 00:34:32 10° NE visible
30 Sep 3.6 02:13:22 10° NNW 02:18:33 35° NE 02:23:43 10° ESE visible
30 Sep 2.4 03:57:16 10° NW 04:02:40 48° WSW 04:08:04 10° S visible
30 Sep 3.0 18:51:33 10° SW 18:57:00 53° NW 19:02:31 10° NNE visible
30 Sep 5.0 20:39:12 10° WNW 20:42:19 15° NNW 20:45:28 10° N visible
01 Oct 5.1 00:14:42 10° N 00:16:09 11° NNE 00:17:36 10° NE visible
01 Oct 3.7 01:56:52 10° NNW 02:01:59 33° NE 02:07:05 10° ESE visible
01 Oct 2.3 03:40:42 10° NW 03:46:09 51° WSW 03:51:37 10° S visible
01 Oct 2.9 18:34:58 10° SW 18:40:27 57° WNW 18:46:01 10° NNE visible
01 Oct 4.9 20:22:25 10° WNW 20:25:42 16° NNW 20:29:01 10° N visible
01 Oct 5.1 23:58:26 10° NNE 23:59:31 10° NNE 00:00:34 10° NNE visible
02 Oct 3.8 01:40:22 10° NNW 01:45:24 32° NE 01:50:26 10° ESE visible
02 Oct 2.2 03:24:09 10° NW 03:29:39 55° WSW 03:35:09 10° S visible
02 Oct 2.8 18:18:23 10° SW 18:23:54 60° WNW 18:29:29 10° NNE visible
02 Oct 4.9 20:05:39 10° WNW 20:09:05 16° NW 20:12:33 10° N visible
02 Oct 5.1 23:42:23 10° NNE 23:42:52 10° NNE 23:43:21 10° NNE visible
03 Oct 4.1 01:23:53 10° NNW 01:26:55 25° NNE 01:26:55 25° NNE visible
03 Oct 4.2 03:07:35 10° NW 03:19:06 - S 03:08:26 15° NW visible
03 Oct 2.7 18:01:49 10° SW 18:07:22 65° WNW 18:12:58 10° NNE visible
03 Oct 4.8 19:48:53 10° WNW 19:52:28 17° NW 19:56:05 10° N visible
04 Oct 4.5 01:07:22 10° NNW 01:09:04 18° N 01:09:04 18° N visible
04 Oct 2.6 17:45:15 10° SW 17:50:49 69° WNW 17:56:27 10° NNE visible
04 Oct 4.8 19:32:08 10° WNW 19:35:52 18° NW 19:39:37 10° N visible
05 Oct 4.8 00:50:53 10° NNW 00:51:52 14° N 00:51:52 14° N visible
05 Oct 4.7 19:15:23 10° W 19:19:15 19° NW 19:23:09 10° N visible
06 Oct 4.9 00:34:23 10° NNW 00:34:57 12° N 00:34:57 12° N visible
06 Oct 4.6 18:58:39 10° W 19:02:39 20° NW 19:06:41 10° N visible
07 Oct 5.0 00:17:54 10° NNW 00:18:11 11° N 00:18:11 11° N visible
07 Oct 4.6 18:41:55 10° W 18:46:02 20° NW 18:50:12 10° N visible
08 Oct 5.1 00:01:25 10° N 00:01:32 10° N 00:01:32 10° N visible
08 Oct 4.5 18:25:12 10° W 18:29:27 21° NW 18:33:43 10° N visible
08 Oct 5.1 23:44:55 10° N 23:44:57 10° N 23:44:57 10° N visible
09 Oct 4.4 18:08:29 10° W 18:12:51 23° NW 18:17:14 10° N visible
